PAL445 RPLL-EDDF

Flight info

Callsign PAL445
Flight time N/A
Altitude 36000
Route SIRCA2R SIRCA L628 DODUS W3 AKOTA A583 BIGEX/N0497F370 A461 BEKOL/K0926S1100 A461 SHL W22 TEPID W24 OSNOV G586 QP B330 ELKAL W179 LEBIV/K0915S1160 W179 RIRKI W232 WFX W179 OMBON Y1 SADAN/K0893S1220 W186 KAMUD/K0885F400 L141 TISIB L163 SR N193 OGOLI T898 DARVA/N0491F400 B476 METKA L88 NIJAT N644 ROLIN UN644 KARDE UL851 KUGOS/K0904F400 DCT ROMOK/K0909F430 L851 ADINA/N0491F430 DCT MIVNU DCT LEBAT DCT EVRIK DCT ERGUZ DCT ABETI DCT SUBEN Q162 SPESA SPESA5C
Aircraft A359/H-SDE2E3GHIJ3J4J5LM1ORWXY/LB1D1

Departure

Time N/A
Airport Ninoy Aquino International Airport (RPLL)

Arrival

Time 2026-04-15 10:41
Airport Frankfurt Main Airport (EDDF)
Time Latitude Longitude Altitude Speed Heading
2026-04-15 09:55 48.30113 14.03759 41330 ft 480 kts 288°
2026-04-15 09:56 48.31982 13.94134 41319 ft 480 kts 287°
2026-04-15 09:57 48.34754 13.79690 41303 ft 480 kts 288°
2026-04-15 09:57 48.36627 13.70048 41301 ft 480 kts 288°
2026-04-15 09:58 48.38495 13.60427 41301 ft 480 kts 288°
2026-04-15 09:58 48.40359 13.50776 41297 ft 480 kts 288°
2026-04-15 09:59 48.42212 13.41132 41281 ft 480 kts 288°
2026-04-15 09:59 48.44384 13.31790 41286 ft 476 kts 297°
2026-04-15 10:00 48.47259 13.22973 41281 ft 475 kts 299°
2026-04-15 10:00 48.50249 13.14214 41253 ft 475 kts 299°
2026-04-15 10:01 48.53278 13.05367 41232 ft 475 kts 299°
2026-04-15 10:01 48.56291 12.96496 41233 ft 475 kts 299°
2026-04-15 10:02 48.59290 12.87609 41233 ft 475 kts 299°
2026-04-15 10:02 48.62281 12.78706 41233 ft 476 kts 299°
2026-04-15 10:03 48.65250 12.69841 41231 ft 476 kts 299°
2026-04-15 10:03 48.68233 12.60907 41234 ft 476 kts 299°
2026-04-15 10:04 48.71207 12.51965 41230 ft 476 kts 299°
2026-04-15 10:04 48.74176 12.43006 41234 ft 476 kts 298°
2026-04-15 10:05 48.77136 12.34046 41235 ft 476 kts 298°
2026-04-15 10:05 48.80061 12.25161 41225 ft 476 kts 298°
2026-04-15 10:06 48.83014 12.16157 41231 ft 477 kts 298°
2026-04-15 10:06 48.85961 12.07139 41231 ft 477 kts 298°
2026-04-15 10:07 48.88900 11.98115 41229 ft 477 kts 298°
2026-04-15 10:07 48.91831 11.89079 41223 ft 476 kts 298°
2026-04-15 10:08 48.94751 11.80046 41231 ft 475 kts 298°
2026-04-15 10:08 48.97657 11.71027 41235 ft 475 kts 298°
2026-04-15 10:09 49.00556 11.61994 41236 ft 475 kts 298°
2026-04-15 10:09 49.02912 11.54634 41232 ft 475 kts 298°
2026-04-15 10:10 49.05791 11.45601 41229 ft 473 kts 299°
2026-04-15 10:10 49.07219 11.41109 41027 ft 470 kts 299°
2026-04-15 10:10 49.08644 11.36619 40790 ft 470 kts 299°
2026-04-15 10:10 49.10066 11.32133 40540 ft 469 kts 299°
2026-04-15 10:11 49.11487 11.27643 40298 ft 469 kts 299°
2026-04-15 10:11 49.12904 11.23155 40082 ft 469 kts 299°
2026-04-15 10:11 49.14316 11.18678 39853 ft 468 kts 299°
2026-04-15 10:11 49.15722 11.14208 39610 ft 468 kts 299°
2026-04-15 10:12 49.17132 11.09717 39364 ft 467 kts 300°
2026-04-15 10:12 49.18564 11.05296 39142 ft 462 kts 303°
2026-04-15 10:12 49.20183 11.01080 38931 ft 459 kts 306°
2026-04-15 10:12 49.21845 10.96916 38639 ft 458 kts 306°
2026-04-15 10:13 49.23522 10.92787 38384 ft 457 kts 306°
2026-04-15 10:13 49.25205 10.88673 38118 ft 456 kts 307°
2026-04-15 10:13 49.26888 10.84562 37841 ft 455 kts 307°
2026-04-15 10:13 49.28567 10.80454 37564 ft 455 kts 307°
2026-04-15 10:14 49.30242 10.76341 37042 ft 455 kts 307°
2026-04-15 10:14 49.31921 10.72220 36368 ft 456 kts 307°
2026-04-15 10:14 49.33592 10.68101 35757 ft 454 kts 307°
2026-04-15 10:14 49.35255 10.63990 35147 ft 454 kts 307°
2026-04-15 10:15 49.36921 10.59868 34548 ft 454 kts 307°
2026-04-15 10:15 49.38587 10.55740 33906 ft 455 kts 307°
2026-04-15 10:15 49.40256 10.51602 33238 ft 458 kts 307°
2026-04-15 10:15 49.41936 10.47429 32595 ft 461 kts 306°
2026-04-15 10:16 49.43605 10.43275 31957 ft 465 kts 306°
2026-04-15 10:16 49.45311 10.39023 31319 ft 469 kts 306°
2026-04-15 10:16 49.47026 10.34741 30708 ft 473 kts 305°
2026-04-15 10:16 49.48754 10.30416 30061 ft 476 kts 305°
2026-04-15 10:17 49.50486 10.26072 29356 ft 477 kts 304°
2026-04-15 10:17 49.52217 10.21724 28665 ft 475 kts 304°
2026-04-15 10:17 49.53933 10.17405 27950 ft 471 kts 304°
2026-04-15 10:17 49.55633 10.13123 27247 ft 467 kts 303°
2026-04-15 10:18 49.57316 10.08875 26555 ft 463 kts 303°
2026-04-15 10:18 49.58987 10.04652 25879 ft 460 kts 303°
2026-04-15 10:18 49.60646 10.00453 25221 ft 457 kts 303°
2026-04-15 10:18 49.62292 9.96283 24593 ft 454 kts 302°
2026-04-15 10:19 49.63929 9.92125 23957 ft 452 kts 302°
2026-04-15 10:19 49.65554 9.87985 23251 ft 449 kts 302°
2026-04-15 10:19 49.67166 9.83878 22529 ft 446 kts 302°
2026-04-15 10:19 49.68766 9.79799 21833 ft 443 kts 302°
2026-04-15 10:20 49.70354 9.75740 21135 ft 439 kts 302°
2026-04-15 10:20 49.71925 9.71721 20458 ft 435 kts 301°
2026-04-15 10:20 49.73480 9.67734 19794 ft 431 kts 302°
2026-04-15 10:20 49.75016 9.63792 19164 ft 427 kts 301°
2026-04-15 10:21 49.76544 9.59864 18524 ft 424 kts 302°
2026-04-15 10:21 49.78055 9.55975 17803 ft 420 kts 301°
2026-04-15 10:21 49.79546 9.52126 17090 ft 415 kts 301°
2026-04-15 10:21 49.81022 9.48316 16397 ft 410 kts 301°
2026-04-15 10:22 49.82478 9.44551 15744 ft 404 kts 301°
2026-04-15 10:22 49.83911 9.40841 15127 ft 399 kts 300°
2026-04-15 10:22 49.85323 9.37168 14524 ft 394 kts 300°
2026-04-15 10:22 49.86482 9.33355 13917 ft 389 kts 289°
2026-04-15 10:23 49.87302 9.29383 13256 ft 386 kts 286°
2026-04-15 10:23 49.88056 9.25409 12610 ft 383 kts 286°
2026-04-15 10:23 49.88802 9.21460 11975 ft 380 kts 285°
2026-04-15 10:23 49.89542 9.17544 11465 ft 376 kts 285°
2026-04-15 10:24 49.90271 9.13696 11204 ft 377 kts 285°
2026-04-15 10:24 49.91015 9.09764 10954 ft 376 kts 286°
2026-04-15 10:24 49.91754 9.05863 10713 ft 375 kts 286°
2026-04-15 10:24 49.92479 9.02041 10474 ft 373 kts 286°
2026-04-15 10:25 49.93227 8.98123 10237 ft 373 kts 286°
2026-04-15 10:25 49.93954 8.94320 10068 ft 359 kts 286°
2026-04-15 10:25 49.94642 8.90716 9933 ft 338 kts 286°
2026-04-15 10:25 49.95279 8.87365 9789 ft 319 kts 286°
2026-04-15 10:26 49.95889 8.84148 9664 ft 302 kts 286°
2026-04-15 10:26 49.96476 8.81051 9521 ft 287 kts 285°
2026-04-15 10:26 49.97024 8.78156 9345 ft 283 kts 286°
2026-04-15 10:26 49.97586 8.75177 9092 ft 284 kts 285°
2026-04-15 10:27 49.97958 8.72213 8836 ft 282 kts 272°
2026-04-15 10:27 49.97672 8.69228 8590 ft 280 kts 252°
2026-04-15 10:27 49.97028 8.66426 8329 ft 279 kts 248°
2026-04-15 10:27 49.96334 8.63619 8085 ft 278 kts 248°
2026-04-15 10:28 49.95648 8.60825 7829 ft 276 kts 248°
2026-04-15 10:28 49.94967 8.58045 7570 ft 275 kts 248°
2026-04-15 10:28 49.94291 8.55264 7344 ft 274 kts 249°
2026-04-15 10:28 49.93619 8.52492 7267 ft 274 kts 248°
2026-04-15 10:29 49.92948 8.49719 7263 ft 274 kts 248°
2026-04-15 10:29 49.92281 8.46954 7261 ft 274 kts 248°
2026-04-15 10:29 49.91614 8.44184 7236 ft 274 kts 248°
2026-04-15 10:29 49.90947 8.41425 7235 ft 273 kts 248°
2026-04-15 10:30 49.90277 8.38659 7236 ft 274 kts 249°
2026-04-15 10:30 49.89608 8.35899 7247 ft 274 kts 249°
2026-04-15 10:30 49.88939 8.33129 7249 ft 275 kts 248°
2026-04-15 10:30 49.88266 8.30349 7191 ft 276 kts 248°
2026-04-15 10:31 49.87593 8.27572 6983 ft 273 kts 248°
2026-04-15 10:31 49.86936 8.24882 6819 ft 261 kts 248°
2026-04-15 10:31 49.86306 8.22300 6647 ft 252 kts 248°
2026-04-15 10:31 49.85695 8.19789 6393 ft 247 kts 248°
2026-04-15 10:32 49.85099 8.17320 6134 ft 243 kts 248°
2026-04-15 10:32 49.84704 8.14800 5887 ft 243 kts 268°
2026-04-15 10:32 49.85101 8.12276 5666 ft 244 kts 298°
2026-04-15 10:32 49.86250 8.10388 5426 ft 240 kts 329°
2026-04-15 10:33 49.87775 8.09467 5210 ft 233 kts 349°
2026-04-15 10:33 49.89360 8.09032 4974 ft 229 kts 353°
2026-04-15 10:33 49.90926 8.09180 4723 ft 225 kts 17°
2026-04-15 10:33 49.92334 8.10145 4497 ft 221 kts 43°
2026-04-15 10:34 49.93105 8.12120 4283 ft 215 kts 74°
2026-04-15 10:34 49.93502 8.14354 4051 ft 214 kts 75°
2026-04-15 10:34 49.93933 8.16526 3984 ft 206 kts 72°
2026-04-15 10:34 49.94398 8.18554 3985 ft 195 kts 70°
2026-04-15 10:35 49.94873 8.20521 4009 ft 193 kts 70°
2026-04-15 10:35 49.95340 8.22454 4018 ft 191 kts 70°
2026-04-15 10:35 49.95806 8.24393 3996 ft 192 kts 70°
2026-04-15 10:35 49.96271 8.26342 3982 ft 193 kts 70°
2026-04-15 10:36 49.96737 8.28288 3817 ft 192 kts 71°
2026-04-15 10:36 49.97201 8.30227 3559 ft 191 kts 70°
2026-04-15 10:36 49.97664 8.32158 3263 ft 189 kts 70°
2026-04-15 10:36 49.98112 8.34027 2993 ft 186 kts 70°
2026-04-15 10:37 49.98560 8.35900 2739 ft 183 kts 70°
2026-04-15 10:37 49.98993 8.37708 2487 ft 176 kts 70°
2026-04-15 10:37 49.99417 8.39477 2260 ft 172 kts 69°
2026-04-15 10:37 49.99823 8.41169 2028 ft 162 kts 70°
2026-04-15 10:38 50.00200 8.42751 1813 ft 148 kts 70°
2026-04-15 10:38 50.00533 8.44179 1627 ft 138 kts 70°
2026-04-15 10:38 50.00861 8.45541 1448 ft 128 kts 69°
2026-04-15 10:38 50.01168 8.46803 1261 ft 125 kts 70°
2026-04-15 10:39 50.01475 8.48069 1094 ft 126 kts 69°
2026-04-15 10:39 50.01780 8.49358 913 ft 127 kts 70°
2026-04-15 10:39 50.02092 8.50658 741 ft 130 kts 68°
2026-04-15 10:39 50.02406 8.51974 558 ft 127 kts 71°
2026-04-15 10:40 50.02713 8.53243 405 ft 128 kts 69°
2026-04-15 10:40 50.03011 8.54497 348 ft 112 kts 70°
2026-04-15 10:40 50.03237 8.55431 355 ft 80 kts 69°
2026-04-15 10:40 50.03403 8.56126 363 ft 58 kts 69°
2026-04-15 10:41 50.03535 8.56683 365 ft 52 kts 70°
2026-04-15 10:41 50.03669 8.57034 367 ft 34 kts 46°
2026-04-15 10:41 50.03830 8.57249 374 ft 28 kts 39°
2026-04-15 10:41 50.03947 8.57408 373 ft 16 kts 50°
2026-04-15 10:42 50.03995 8.57575 376 ft 18 kts 69°
2026-04-15 10:42 50.04043 8.57775 375 ft 21 kts 69°
2026-04-15 10:42 50.04099 8.58006 377 ft 24 kts 69°
2026-04-15 10:42 50.04161 8.58263 376 ft 27 kts 69°
2026-04-15 10:43 50.04220 8.58511 377 ft 4 kts 71°
2026-04-15 10:43 50.04238 8.58570 376 ft 10 kts 59°
2026-04-15 10:43 50.04328 8.58626 375 ft 19 kts
2026-04-15 10:43 50.04475 8.58647 377 ft 20 kts
2026-04-15 10:44 50.04579 8.58706 377 ft 14 kts 38°
2026-04-15 10:44 50.04678 8.58766 376 ft 18 kts
2026-04-15 10:44 50.04818 8.58724 374 ft 21 kts 339°
2026-04-15 10:44 50.04915 8.58661 373 ft 14 kts 323°
2026-04-15 10:45 50.04919 8.58536 370 ft 14 kts 250°
2026-04-15 10:45 50.04883 8.58385 374 ft 18 kts 250°
2026-04-15 10:45 50.04842 8.58212 374 ft 16 kts 249°
2026-04-15 10:45 50.04800 8.58093 371 ft 7 kts 202°
2026-04-15 10:46 50.04746 8.58108 373 ft 6 kts 161°
2026-04-15 10:46 50.04728 8.58118 375 ft 1 kts 160°
2026-04-15 10:46 50.04727 8.58118 375 ft 0 kts 160°